Theta_e
327 326 324 325 329 331 331 329 323 322 323 323 322 319 320 321 320 319 318 317 316 313 313 312 311 310 309 308 307 305 303 302
329 328 326 328 331 331 331 330 326 325 324 324 321 323 321 318 317 317 315 313 312 312 312 311 309 308 307 306 304 302 302 301
329 330 330 330 331 330 329 329 326 326 326 324 322 320 318 317 316 314 313 312 312 311 310 309 308 307 305 303 303 302 301 300
330 330 331 331 330 330 329 329 327 327 325 322 320 320 318 316 314 313 312 311 310 309 308 307 305 304 302 303 303 301 300 300
331 331 331 331 330 329 330 329 327 324 321 320 319 318 317 317 316 314 312 310 309 308 306 305 304 303 303 303 302 301 300 299
330 330 331 331 329 328 328 326 323 321 320 319 319 318 317 316 314 313 311 310 308 306 305 305 304 303 303 302 302 301 299 299
330 329 327 326 326 327 326 321 320 319 318 318 318 317 315 313 311 309 306 305 304 305 304 304 303 302 302 302 301 299 299 298
324 322 320 321 322 323 323 319 318 318 317 317 316 313 310 307 307 305 305 304 303 302 302 301 301 301 300 300 300 298 298 298
321 319 319 319 319 319 318 318 317 317 315 313 310 307 306 306 306 305 302 301 301 301 299 299 299 299 298 298 298 298 297 297
320 319 319 319 319 319 318 318 316 315 312 308 307 305 305 304 302 301 300 300 299 297 297 297 296 296 297 297 297 298 296 296
320 320 319 319 319 319 318 316 314 310 308 307 306 307 303 301 300 300 299 298 297 297 296 296 296 296 296 296 297 296 296 296
321 320 320 320 318 317 315 313 310 308 307 307 305 303 301 300 300 299 298 297 297 296 295 296 296 296 296 296 296 296 295 294
321 321 320 319 318 315 313 310 308 308 306 304 303 301 300 300 299 298 297 297 296 295 295 296 296 295 295 294 295 294 294 293
322 321 320 318 316 314 311 308 307 306 305 303 302 300 300 300 298 298 297 296 295 295 295 295 295 294 293 293 293 292 292 291
322 321 319 317 314 312 310 307 307 306 303 302 300 300 300 298 298 298 297 296 295 295 295 295 294 293 292 292 292 291 291 290
321 320 318 316 313 311 308 306 306 302 303 300 299 299 298 298 298 297 296 295 295 295 294 294 293 292 292 291 291 290 289 288
319 318 317 315 313 310 308 305 303 303 301 299 299 298 297 297 297 296 295 294 294 294 294 293 292 292 291 289 289 288 288 287
318 317 316 314 311 309 306 304 303 301 299 299 298 296 297 296 295 295 294 294 294 294 294 293 292 292 291 289 288 288 286 286
317 316 315 313 310 307 304 303 300 299 298 298 296 296 295 295 294 294 294 294 294 293 293 293 292 291 290 288 288 287 286 286
Wind_Speed
14 14 15 16 16 16 17 18 19 17 15 17 17 19 14 9 7 5 5 8 9 4 4 8 9 8 9 12 17 17 18 21
13 13 15 17 18 17 18 20 17 14 14 10 13 9 11 8 5 7 5 6 5 4 3 6 9 10 11 13 15 18 18 19
14 15 16 17 18 19 20 17 15 11 7 8 8 9 7 4 6 6 6 5 4 4 8 6 9 10 13 15 16 17 18 18
16 16 17 17 18 19 20 15 11 11 12 12 11 10 7 6 5 3 5 6 4 7 8 9 10 13 15 16 16 16 20 19
17 17 17 18 19 17 15 14 15 15 14 11 10 7 6 7 6 7 5 7 6 6 9 11 13 14 15 16 16 17 19 23
18 18 18 18 18 17 16 17 17 16 13 11 9 7 5 3 3 5 5 7 8 10 12 13 15 17 18 19 19 19 20 22
20 21 21 20 17 18 17 18 16 14 11 10 9 9 6 4 5 6 7 9 11 12 14 16 18 20 20 19 19 20 21 23
22 22 21 19 18 18 18 17 15 13 12 10 9 7 6 5 6 7 8 9 11 13 15 17 17 18 19 20 24 25 23 24
22 21 20 18 17 17 17 16 14 13 12 10 8 6 5 4 6 7 7 9 11 13 14 15 17 18 19 21 22 22 23 22
22 21 20 18 18 18 17 17 15 14 13 11 9 5 5 7 6 6 7 9 10 12 15 17 19 20 21 21 23 23 25 24
22 22 20 19 18 18 18 18 17 16 13 10 6 6 5 6 6 7 7 8 11 13 16 17 18 19 19 20 21 23 20 20
22 21 21 20 19 19 19 18 18 15 12 8 5 5 8 7 7 7 8 10 12 15 16 17 17 18 17 17 19 20 19 15
24 23 22 21 21 20 20 19 17 14 11 9 7 9 8 9 9 9 10 12 14 16 16 16 17 17 18 19 18 14 12 13
24 23 23 23 22 21 21 19 16 15 9 6 8 10 10 10 11 11 12 14 16 16 15 16 17 17 16 12 11 10 12 10
24 24 24 23 22 22 21 19 17 11 10 9 11 12 11 12 12 12 13 15 16 15 15 16 16 14 13 10 8 9 9 13
23 24 24 24 23 22 21 18 14 14 9 11 12 12 11 12 13 13 14 15 15 15 16 15 14 12 10 9 9 11 13 16
22 23 23 24 23 22 20 18 14 10 10 13 11 11 11 12 13 14 15 15 15 15 15 14 13 12 17 14 12 15 15 16
21 23 23 23 22 21 21 16 11 11 12 11 11 11 11 12 13 15 15 15 16 16 16 15 14 13 18 16 15 17 16 13
18 20 21 21 20 21 16 13 11 11 9 10 10 11 11 12 14 16 16 15 17 16 15 14 13 14 19 18 17 20 12 13
Wind_Direction
180 183 185 188 187 181 174 178 195 205 224 239 255 261 259 245 224 181 203 236 250 233 268 284 310 311 313 311 320 323 319 317
189 184 185 187 185 188 184 189 200 210 219 245 237 209 211 195 185 218 221 211 218 232 277 311 314 314 314 320 322 322 323 321
191 188 190 189 189 195 192 195 191 187 202 169 160 168 164 163 189 202 202 232 226 286 285 304 297 309 314 313 318 318 319 320
197 191 189 187 188 188 193 182 166 177 177 167 161 163 174 185 206 223 218 250 258 288 302 305 309 313 308 305 308 310 313 316
196 189 185 179 184 177 174 176 178 180 169 173 180 191 210 193 205 226 245 263 280 296 301 305 304 305 303 302 299 300 304 306
183 180 173 165 165 168 174 177 176 177 173 186 188 204 217 197 206 224 253 275 295 302 300 296 297 298 295 293 291 290 296 299
164 160 159 162 164 169 173 172 177 175 177 176 180 180 186 211 249 258 269 274 285 289 293 294 294 294 293 290 287 289 291 293
163 163 162 162 164 168 172 175 179 177 170 165 165 171 186 231 231 263 273 287 290 295 296 298 297 293 291 288 284 285 285 287
172 172 172 173 173 175 176 182 183 179 170 172 170 177 192 222 247 259 288 288 295 296 300 300 300 296 292 289 287 285 282 290
181 182 184 186 185 185 185 187 188 186 181 175 178 184 250 244 248 273 283 292 294 298 298 300 299 297 293 289 287 283 285 285
190 191 192 193 192 190 187 189 190 185 182 177 191 240 239 234 258 272 287 293 294 299 302 303 303 302 297 292 285 285 287 289
198 199 199 199 196 192 189 188 187 186 189 194 223 230 227 245 265 276 284 287 298 302 303 303 306 306 299 288 288 289 293 288
206 207 205 202 199 198 195 192 189 192 198 207 238 224 239 258 272 276 282 292 299 303 304 304 302 296 292 287 293 291 290 291
212 210 210 207 205 203 202 195 192 192 217 212 230 241 257 268 272 274 282 294 300 303 301 303 304 302 302 293 288 284 288 290
216 214 214 211 210 207 206 200 195 211 202 221 239 250 264 272 267 269 283 293 297 297 301 298 298 300 288 288 291 290 295 300
219 218 216 214 212 210 209 204 204 197 226 228 243 256 268 269 266 274 284 290 292 295 300 295 293 293 278 262 285 290 302 300
221 222 220 217 215 213 210 205 204 210 225 233 251 262 268 266 270 279 289 292 293 295 293 289 286 287 264 289 280 290 309 301
228 226 223 220 218 213 206 204 209 212 223 245 262 268 264 269 278 283 287 290 292 292 287 281 276 274 273 279 286 303 310 299
235 228 223 219 218 204 205 204 204 220 238 261 268 266 271 277 282 284 285 288 291 288 281 279 269 268 271 285 290 310 301 298